{"data":{"norad_id":51985,"epoch":"2026-09-20T04:49:28.881408Z","epoch_age_seconds":81232,"freshness":"FRESH","line1":"1 51985U 22025AF  26263.20102872  .00000339  00000+0  22689-4 0  9995","line2":"2 51985  53.1599 233.1792 0001181  83.3378 276.7758 15.31703282250597","mean_motion":15.31703282,"eccentricity":0.0001181,"inclination_deg":53.1599,"raan_deg":233.1792,"arg_perigee_deg":83.3378,"mean_anomaly_deg":276.7758,"bstar":2.2689e-5,"rev_number":25059,"period_min":94.012986517842,"perigee_km":469.92136055419,"apogee_km":471.53906298961,"semimajor_km":6848.8672117719,"source":"CELESTRAK","updated_at":"2026-09-20T09:00:39.979958Z"}}